Date,TemperatureHighF,TemperatureAvgF,TemperatureLowF,DewpointHighF,DewpointAvgF,DewpointLowF,HumidityHigh,HumidityAvg,HumidityLow,PressureMaxIn,PressureMinIn,WindSpeedMaxMPH,WindSpeedAvgMPH,GustSpeedMaxMPH,PrecipitationSumIn
2013-1-1,23,21,19,-100,-100,-100,0,0,100,0.00,40.00,0,-999,0,0.02
2013-1-2,20,19,17,-100,-100,-100,0,0,100,0.00,40.00,0,-999,0,0.03
2013-1-3,24,16,3,-100,-100,-100,0,0,100,0.00,40.00,0,-999,0,0.02
2013-1-4,20,8,2,-100,-100,-100,0,0,100,0.00,40.00,0,-999,0,0.02
2013-1-5,22,11,1,-100,-100,-100,0,0,100,0.00,40.00,0,-999,0,0.03
2013-1-6,24,17,8,-100,-100,-100,0,0,100,0.00,40.00,0,-999,0,0.03
2013-1-7,24,18,7,-100,-100,-100,0,0,100,0.00,40.00,0,-999,0,0.08
2013-1-8,29,26,23,-100,-100,-100,0,0,100,0.00,40.00,0,-999,0,0.15
2013-1-9,37,31,26,-100,-100,-100,0,0,100,0.00,40.00,0,-999,0,0.31
2013-1-10,32,29,25,-100,-100,-100,0,0,100,0.00,40.00,0,-999,0,0.22
2013-1-11,28,21,14,-100,-100,-100,0,0,100,0.00,40.00,0,-999,0,0.01
2013-1-12,16,10,-2,-100,-100,-100,0,0,100,0.00,40.00,0,-999,0,0.01
2013-1-13,14,1,-7,-100,-100,-100,0,0,100,0.00,40.00,0,-999,0,0.02
2013-1-14,14,7,-7,-100,-100,-100,0,0,100,0.00,40.00,0,-999,0,0.07
2013-1-15,19,11,-1,-100,-100,-100,0,0,100,0.00,40.00,0,-999,0,0.01
2013-1-16,16,6,-7,-100,-100,-100,0,0,100,0.00,40.00,0,-999,0,0.00
2013-1-17,12,1,-8,-100,-100,-100,0,0,100,0.00,40.00,0,-999,0,0.00
2013-1-18,15,2,-9,-100,-100,-100,0,0,100,0.00,40.00,0,-999,0,0.00
2013-1-19,15,3,-9,-100,-100,-100,0,0,100,0.00,40.00,0,-999,0,0.00
2013-1-20,14,3,-9,-100,-100,-100,0,0,100,0.00,40.00,0,-999,0,0.00
2013-1-21,20,4,-9,-100,-100,-100,0,0,100,0.00,40.00,0,-999,0,0.00
2013-1-22,16,5,-10,-100,-100,-100,0,0,100,0.00,40.00,0,-999,0,0.00
2013-1-23,23,11,-1,-100,-100,-100,0,0,100,0.00,40.00,0,-999,0,0.02
2013-1-24,32,28,22,-100,-100,-100,0,0,100,0.00,40.00,0,-999,0,0.43
2013-1-25,37,34,32,-100,-100,-100,0,0,100,0.00,40.00,0,-999,0,0.40
2013-1-26,36,35,33,-100,-100,-100,0,0,100,0.00,40.00,0,-999,0,0.53
2013-1-27,39,30,22,-100,-100,-100,0,0,100,0.00,40.00,0,-999,0,0.10
2013-1-28,29,24,16,-100,-100,-100,0,0,100,0.00,40.00,0,-999,0,0.11
2013-1-29,44,32,26,-100,-100,-100,0,0,100,0.00,40.00,0,-999,0,0.24
2013-1-30,43,35,32,-100,-100,-100,0,0,100,0.00,40.00,0,-999,0,0.20
2013-1-31,42,34,28,-100,-100,-100,0,0,100,0.00,40.00,0,-999,0,0.01
2013-2-1,35,30,24,-100,-100,-100,0,0,100,0.00,40.00,0,-999,0,0.01
2013-2-2,32,24,14,-100,-100,-100,0,0,100,0.00,40.00,0,-999,0,0.01
2013-2-3,34,27,17,-100,-100,-100,0,0,100,0.00,40.00,0,-999,0,0.01
2013-2-4,35,32,30,-100,-100,-100,0,0,100,0.00,40.00,0,-999,0,0.01
2013-2-5,34,31,29,-100,-100,-100,0,0,100,0.00,40.00,0,-999,0,0.01
2013-2-6,34,30,25,-100,-100,-100,0,0,100,0.00,40.00,0,-999,0,0.01
2013-2-7,35,28,22,-100,-100,-100,0,0,100,0.00,40.00,0,-999,0,0.01
2013-2-8,41,34,24,-100,-100,-100,0,0,100,0.00,40.00,0,-999,0,0.02
2013-2-9,42,35,30,-100,-100,-100,0,0,100,0.00,40.00,0,-999,0,0.01
2013-2-10,43,35,27,-100,-100,-100,0,0,100,0.00,40.00,0,-999,0,0.04
2013-2-11,36,26,18,-100,-100,-100,0,0,100,0.00,40.00,0,-999,0,0.02
2013-2-12,38,29,20,-100,-100,-100,0,0,100,0.00,40.00,0,-999,0,0.01
2013-2-13,41,34,26,-100,-100,-100,0,0,100,0.00,40.00,0,-999,0,0.01
2013-2-14,41,32,22,-100,-100,-100,0,0,100,0.00,40.00,0,-999,0,0.02
2013-2-15,43,33,23,-100,-100,-100,0,0,100,0.00,40.00,0,-999,0,0.01
2013-2-16,46,32,20,-100,-100,-100,0,0,100,0.00,40.00,0,-999,0,0.02
2013-2-17,42,35,26,-100,-100,-100,0,0,100,0.00,40.00,0,-999,0,0.01
2013-2-18,41,30,21,-100,-100,-100,0,0,100,0.00,40.00,0,-999,0,0.02
2013-2-19,39,31,24,-100,-100,-100,0,0,100,0.00,40.00,0,-999,0,0.10
2013-2-20,41,31,23,-100,-100,-100,0,0,100,0.00,40.00,0,-999,0,0.01
2013-2-21,37,30,18,-100,-100,-100,0,0,100,0.00,40.00,0,-999,0,0.02
2013-2-22,35,31,27,-100,-100,-100,0,0,100,0.00,40.00,0,-999,0,0.42
2013-2-23,38,32,25,-100,-100,-100,0,0,100,0.00,40.00,0,-999,0,0.65
2013-2-24,35,27,15,-100,-100,-100,0,0,100,0.00,40.00,0,-999,0,0.15
2013-2-25,32,26,16,-100,-100,-100,0,0,100,0.00,40.00,0,-999,0,0.25
2013-2-26,32,24,13,-100,-100,-100,0,0,100,0.00,40.00,0,-999,0,0.13
2013-2-27,40,24,12,-100,-100,-100,0,0,100,0.00,40.00,0,-999,0,0.01
2013-2-28,36,31,22,-100,-100,-100,0,0,100,0.00,40.00,0,-999,0,0.07
2013-3-1,45,37,32,-100,-100,-100,0,0,100,0.00,40.00,0,-999,0,0.01
2013-3-2,44,35,27,-100,-100,-100,0,0,100,0.00,40.00,0,-999,0,0.01
2013-3-3,45,38,25,-100,-100,-100,0,0,100,0.00,40.00,0,-999,0,0.01
2013-3-4,42,30,17,-100,-100,-100,0,0,100,0.00,40.00,0,-999,0,0.00
2013-3-5,40,30,21,-100,-100,-100,0,0,100,0.00,40.00,0,-999,0,0.00
2013-3-6,43,38,33,-100,-100,-100,0,0,100,0.00,40.00,0,-999,0,0.23
2013-3-7,48,37,28,-100,-100,-100,0,0,100,0.00,40.00,0,-999,0,0.02
2013-3-8,50,37,26,-100,-100,-100,0,0,100,0.00,40.00,0,-999,0,0.01
2013-3-9,50,40,32,-100,-100,-100,0,0,100,0.00,40.00,0,-999,0,0.01
2013-3-10,49,39,27,-100,-100,-100,0,0,100,0.00,40.00,0,-999,0,0.01
2013-3-11,53,44,37,-100,-100,-100,0,0,100,0.00,40.00,0,-999,0,0.01
2013-3-12,57,43,33,-100,-100,-100,0,0,100,0.00,40.00,0,-999,0,0.01
2013-3-13,61,47,36,-100,-100,-100,0,0,100,0.00,40.00,0,-999,0,0.01
2013-3-14,58,46,35,-100,-100,-100,0,0,100,0.00,40.00,0,-999,0,0.01
2013-3-15,61,49,37,-100,-100,-100,0,0,100,0.00,40.00,0,-999,0,0.01
2013-3-16,54,44,31,-100,-100,-100,0,0,100,0.00,40.00,0,-999,0,0.01
2013-3-17,44,38,30,-100,-100,-100,0,0,100,0.00,40.00,0,-999,0,0.01
2013-3-18,49,37,27,-100,-100,-100,0,0,100,0.00,40.00,0,-999,0,0.01
2013-3-19,53,39,24,-100,-100,-100,0,0,100,0.00,40.00,0,-999,0,0.01
2013-3-20,51,45,39,-100,-100,-100,0,0,100,0.00,40.00,0,-999,0,0.55
2013-3-21,42,37,31,-100,-100,-100,0,0,100,0.00,40.00,0,-999,0,0.06
2013-3-22,41,34,28,-100,-100,-100,0,0,100,0.00,40.00,0,-999,0,0.02
2013-3-23,42,31,21,-100,-100,-100,0,0,100,0.00,40.00,0,-999,0,0.01
2013-3-24,45,34,22,-100,-100,-100,0,0,100,0.00,40.00,0,-999,0,0.02
2013-3-25,51,38,26,-100,-100,-100,0,0,100,0.00,40.00,0,-999,0,0.02
2013-3-26,57,47,39,-100,-100,-100,0,0,100,0.00,40.00,0,-999,0,0.01
2013-3-27,61,45,31,-100,-100,-100,0,0,100,0.00,40.00,0,-999,0,0.01
2013-3-28,64,52,41,-100,-100,-100,0,0,100,0.00,40.00,0,-999,0,0.02
2013-3-29,63,53,44,-100,-100,-100,0,0,100,0.00,40.00,0,-999,0,0.07
2013-3-30,68,52,39,-100,-100,-100,0,0,100,0.00,40.00,0,-999,0,0.05
2013-3-31,73,52,34,-100,-100,-100,0,0,100,0.00,40.00,0,-999,0,0.01
2013-4-1,68,54,36,-100,-100,-100,0,0,100,0.00,40.00,0,-999,0,0.01
2013-4-2,69,56,46,-100,-100,-100,0,0,100,0.00,40.00,0,-999,0,0.01
2013-4-3,67,54,44,-100,-100,-100,0,0,100,0.00,40.00,0,-999,0,0.01
2013-4-4,63,54,46,-100,-100,-100,0,0,100,0.00,40.00,0,-999,0,0.01
2013-4-5,61,53,42,-100,-100,-100,0,0,100,0.00,40.00,0,-999,0,0.07
2013-4-6,55,49,45,-100,-100,-100,0,0,100,0.00,40.00,0,-999,0,0.23
2013-4-7,51,46,39,-100,-100,-100,0,0,100,0.00,40.00,0,-999,0,1.47
2013-4-8,51,41,36,-100,-100,-100,0,0,100,0.00,40.00,0,-999,0,0.07
2013-4-9,58,46,37,-100,-100,-100,0,0,100,0.00,40.00,0,-999,0,0.02
2013-4-10,56,45,35,-100,-100,-100,0,0,100,0.00,40.00,0,-999,0,0.05
2013-4-11,58,49,40,-100,-100,-100,0,0,100,0.00,40.00,0,-999,0,0.01
2013-4-12,57,47,35,-100,-100,-100,0,0,100,0.00,40.00,0,-999,0,0.02
2013-4-13,52,47,36,-100,-100,-100,0,0,100,0.00,40.00,0,-999,0,0.01
2013-4-14,47,37,23,-100,-100,-100,0,0,100,0.00,40.00,0,-999,0,0.02
2013-4-15,46,39,32,-100,-100,-100,0,0,100,0.00,40.00,0,-999,0,0.02
2013-4-16,50,42,34,-100,-100,-100,0,0,100,0.00,40.00,0,-999,0,0.01
2013-4-17,52,40,29,-100,-100,-100,0,0,100,0.00,40.00,0,-999,0,0.01
2013-4-18,57,42,27,-100,-100,-100,0,0,100,0.00,40.00,0,-999,0,0.02
2013-4-19,51,46,41,-100,-100,-100,0,0,100,0.00,40.00,0,-999,0,0.11
2013-4-20,60,50,41,-100,-100,-100,0,0,100,0.00,40.00,0,-999,0,0.12
2013-4-21,60,48,38,-100,-100,-100,0,0,100,0.00,40.00,0,-999,0,0.11
2013-4-22,53,45,35,-100,-100,-100,0,0,100,0.00,40.00,0,-999,0,0.11
2013-4-23,56,44,29,-100,-100,-100,0,0,100,0.00,40.00,0,-999,0,0.01
2013-4-24,62,50,36,-100,-100,-100,0,0,100,0.00,40.00,0,-999,0,0.01
2013-4-25,69,52,33,-100,-100,-100,0,0,100,0.00,40.00,0,-999,0,0.02
2013-4-26,74,57,39,-100,-100,-100,0,0,100,0.00,40.00,0,-999,0,0.11
2013-4-27,74,58,38,-100,-100,-100,0,0,100,0.00,40.00,0,-999,0,0.01
2013-4-28,68,60,51,-100,-100,-100,0,0,100,0.00,40.00,0,-999,0,0.03
2013-4-29,61,54,40,-100,-100,-100,0,0,100,0.00,40.00,0,-999,0,0.10
2013-4-30,50,44,36,-100,-100,-100,0,0,100,0.00,40.00,0,-999,0,0.01
2013-5-1,59,43,26,-100,-100,-100,0,0,100,0.00,40.00,0,-999,0,0.01
2013-5-2,67,50,29,-100,-100,-100,0,0,100,0.00,40.00,0,-999,0,0.01
2013-5-3,72,57,42,-100,-100,-100,0,0,100,0.00,40.00,0,-999,0,0.02
2013-5-4,71,60,46,-100,-100,-100,0,0,100,0.00,40.00,0,-999,0,0.01
2013-5-5,78,62,46,-100,-100,-100,0,0,100,0.00,40.00,0,-999,0,0.01
2013-5-6,83,65,48,-100,-100,-100,0,0,100,0.00,40.00,0,-999,0,0.01
2013-5-7,81,63,43,-100,-100,-100,0,0,100,0.00,40.00,0,-999,0,0.04
2013-5-8,84,66,47,-100,-100,-100,0,0,100,0.00,40.00,0,-999,0,0.01
2013-5-9,86,67,47,-100,-100,-100,0,0,100,0.00,40.00,0,-999,0,0.01
2013-5-10,88,69,51,-100,-100,-100,0,0,100,0.00,40.00,0,-999,0,0.03
2013-5-11,85,68,50,-100,-100,-100,0,0,100,0.00,40.00,0,-999,0,0.01
2013-5-12,88,72,52,-100,-100,-100,0,0,100,0.00,40.00,0,-999,0,0.01
2013-5-13,88,72,58,-100,-100,-100,0,0,100,0.00,40.00,0,-999,0,0.01
2013-5-14,74,63,50,-100,-100,-100,0,0,100,0.00,40.00,0,-999,0,0.01
2013-5-15,74,62,51,-100,-100,-100,0,0,100,0.00,40.00,0,-999,0,0.01
2013-5-16,69,61,51,-100,-100,-100,0,0,100,0.00,40.00,0,-999,0,0.01
2013-5-17,67,56,51,-100,-100,-100,0,0,100,0.00,40.00,0,-999,0,0.22
2013-5-18,66,57,48,-100,-100,-100,0,0,100,0.00,40.00,0,-999,0,0.18
2013-5-19,63,55,49,-100,-100,-100,0,0,100,0.00,40.00,0,-999,0,0.04
2013-5-20,74,61,47,-100,-100,-100,0,0,100,0.00,40.00,0,-999,0,0.02
2013-5-21,76,63,42,-100,-100,-100,0,0,100,0.00,40.00,0,-999,0,0.11
2013-5-22,55,48,38,-100,-100,-100,0,0,100,0.00,40.00,0,-999,0,0.02
2013-5-23,65,50,30,-100,-100,-100,0,0,100,0.00,40.00,0,-999,0,0.03
2013-5-24,65,51,38,-100,-100,-100,0,0,100,0.00,40.00,0,-999,0,0.01
2013-5-25,70,57,47,-100,-100,-100,0,0,100,0.00,40.00,0,-999,0,0.01
2013-5-26,68,58,51,-100,-100,-100,0,0,100,0.00,40.00,0,-999,0,0.01
2013-5-27,66,54,45,-100,-100,-100,0,0,100,0.00,40.00,0,-999,0,0.22
2013-5-28,64,54,49,-100,-100,-100,0,0,100,0.00,40.00,0,-999,0,0.51
2013-5-29,59,50,41,-100,-100,-100,0,0,100,0.00,40.00,0,-999,0,0.33
2013-5-30,49,46,44,-100,-100,-100,0,0,100,0.00,40.00,0,-999,0,0.29
2013-5-31,71,66,55,-100,-100,-100,0,0,100,0.00,40.00,0,-999,0,0.02
2013-6-1,77,62,44,-100,-100,-100,0,0,100,0.00,40.00,0,-999,0,0.01
2013-6-2,72,63,54,-100,-100,-100,0,0,100,0.00,40.00,0,-999,0,0.01
2013-6-3,73,60,43,-100,-100,-100,0,0,100,0.00,40.00,0,-999,0,0.01
2013-6-4,80,66,50,-100,-100,-100,0,0,100,0.00,40.00,0,-999,0,0.01
2013-6-5,85,69,51,-100,-100,-100,0,0,100,0.00,40.00,0,-999,0,0.01
2013-6-6,90,72,56,-100,-100,-100,0,0,100,0.00,40.00,0,-999,0,0.01
2013-6-7,90,73,58,-100,-100,-100,0,0,100,0.00,40.00,0,-999,0,0.01
2013-6-8,87,72,57,-100,-100,-100,0,0,100,0.00,40.00,0,-999,0,0.01
2013-6-9,89,71,51,-100,-100,-100,0,0,100,0.00,40.00,0,-999,0,0.02
2013-6-10,90,74,59,-100,-100,-100,0,0,100,0.00,40.00,0,-999,0,0.01
2013-6-11,81,72,62,-100,-100,-100,0,0,100,0.00,40.00,0,-999,0,0.01
2013-6-12,79,66,52,-100,-100,-100,0,0,100,0.00,40.00,0,-999,0,0.01
2013-6-13,71,61,51,-100,-100,-100,0,0,100,0.00,40.00,0,-999,0,0.01
2013-6-14,70,57,46,-100,-100,-100,0,0,100,0.00,40.00,0,-999,0,0.02
2013-6-15,83,63,40,-100,-100,-100,0,0,100,0.00,40.00,0,-999,0,0.12
2013-6-16,90,71,56,-100,-100,-100,0,0,100,0.00,40.00,0,-999,0,0.01
2013-6-17,89,74,59,-100,-100,-100,0,0,100,0.00,40.00,0,-999,0,0.03
2013-6-18,83,71,60,-100,-100,-100,0,0,100,0.00,40.00,0,-999,0,0.01
2013-6-19,65,54,46,-100,-100,-100,0,0,100,0.00,40.00,0,-999,0,0.42
2013-6-20,60,49,45,-100,-100,-100,0,0,100,0.00,40.00,0,-999,0,0.09
2013-6-22,74,66,55,-100,-100,-100,0,0,100,0.00,40.00,0,-999,0,0.02
2013-6-23,82,64,46,-100,-100,-100,0,0,100,0.00,40.00,0,-999,0,0.01
2013-6-24,71,64,58,-100,-100,-100,0,0,100,0.00,40.00,0,-999,0,0.19
2013-6-25,65,60,54,-100,-100,-100,0,0,100,0.00,40.00,0,-999,0,0.22
2013-6-26,78,65,57,-100,-100,-100,0,0,100,0.00,40.00,0,-999,0,0.21
2013-6-27,90,71,55,-100,-100,-100,0,0,100,0.00,40.00,0,-999,0,0.05
2013-6-28,100,81,62,-100,-100,-100,0,0,100,0.00,40.00,0,-999,0,0.01
2013-6-29,101,86,76,-100,-100,-100,0,0,100,0.00,40.00,0,-999,0,0.01
2013-6-30,101,87,72,-100,-100,-100,0,0,100,0.00,40.00,0,-999,0,0.01
2013-7-1,107,88,72,-100,-100,-100,0,0,100,0.00,40.00,0,-999,0,0.01
2013-7-2,106,87,69,-100,-100,-100,0,0,100,0.00,40.00,0,-999,0,0.02
2013-7-3,98,86,73,-100,-100,-100,0,0,100,0.00,40.00,0,-999,0,0.01
2013-7-4,94,80,65,-100,-100,-100,0,0,100,0.00,40.00,0,-999,0,0.02
2013-7-5,90,77,60,-100,-100,-100,0,0,100,0.00,40.00,0,-999,0,0.01
2013-7-6,91,72,57,-100,-100,-100,0,0,100,0.00,40.00,0,-999,0,0.02
2013-7-7,95,78,63,-100,-100,-100,0,0,100,0.00,40.00,0,-999,0,0.01
2013-7-8,93,76,64,-100,-100,-100,0,0,100,0.00,40.00,0,-999,0,0.02
2013-7-9,96,78,62,-100,-100,-100,0,0,100,0.00,40.00,0,-999,0,0.01
2013-7-10,99,82,62,-100,-100,-100,0,0,100,0.00,40.00,0,-999,0,0.01
2013-7-11,85,75,65,-100,-100,-100,0,0,100,0.00,40.00,0,-999,0,0.00
2013-7-12,90,72,54,-100,-100,-100,0,0,100,0.00,40.00,0,-999,0,0.01
2013-7-13,88,73,56,-100,-100,-100,0,0,100,0.00,40.00,0,-999,0,0.01
2013-7-14,94,78,61,-100,-100,-100,0,0,100,0.00,40.00,0,-999,0,0.01
2013-7-15,98,80,63,-100,-100,-100,0,0,100,0.00,40.00,0,-999,0,0.01
2013-7-16,100,85,72,-100,-100,-100,0,0,100,0.00,40.00,0,-999,0,0.01
2013-7-17,96,82,65,-100,-100,-100,0,0,100,0.00,40.00,0,-999,0,0.01
2013-7-18,98,86,68,-100,-100,-100,0,0,100,0.00,40.00,0,-999,0,0.01
2013-7-19,101,85,68,-100,-100,-100,0,0,100,0.00,40.00,0,-999,0,0.01
2013-7-20,100,84,70,-100,-100,-100,0,0,100,0.00,40.00,0,-999,0,0.01
2013-7-21,100,82,59,-100,-100,-100,0,0,100,0.00,40.00,0,-999,0,0.01
2013-7-22,97,77,54,-100,-100,-100,0,0,100,0.00,40.00,0,-999,0,0.01
2013-7-23,101,80,59,-100,-100,-100,0,0,100,0.00,40.00,0,-999,0,0.01
2013-7-24,103,86,70,-100,-100,-100,0,0,100,0.00,40.00,0,-999,0,0.01
2013-7-25,99,82,65,-100,-100,-100,0,0,100,0.00,40.00,0,-999,0,0.01
2013-7-26,99,80,65,-100,-100,-100,0,0,100,0.00,40.00,0,-999,0,0.01
2013-7-27,94,83,65,-100,-100,-100,0,0,100,0.00,40.00,0,-999,0,0.01
2013-7-28,90,74,56,-100,-100,-100,0,0,100,0.00,40.00,0,-999,0,0.01
2013-7-29,88,75,56,-100,-100,-100,0,0,100,0.00,40.00,0,-999,0,0.01
2013-7-30,92,76,64,-100,-100,-100,0,0,100,0.00,40.00,0,-999,0,0.00
2013-7-31,94,81,65,-100,-100,-100,0,0,100,0.00,40.00,0,-999,0,0.00
2013-8-1,88,73,60,-100,-100,-100,0,0,100,0.00,40.00,0,-999,0,0.01
2013-8-2,79,64,49,-100,-100,-100,0,0,100,0.00,40.00,0,-999,0,0.01
2013-8-3,86,72,58,-100,-100,-100,0,0,100,0.00,40.00,0,-999,0,0.01
2013-8-4,93,76,58,-100,-100,-100,0,0,100,0.00,40.00,0,-999,0,0.01
2013-8-5,94,82,66,-100,-100,-100,0,0,100,0.00,40.00,0,-999,0,0.01
2013-8-6,95,79,60,-100,-100,-100,0,0,100,0.00,40.00,0,-999,0,0.01
2013-8-7,98,80,61,-100,-100,-100,0,0,100,0.00,40.00,0,-999,0,0.01
2013-8-8,98,83,70,-100,-100,-100,0,0,100,0.00,40.00,0,-999,0,0.01
2013-8-9,94,81,66,-100,-100,-100,0,0,100,0.00,40.00,0,-999,0,0.02
2013-8-10,92,79,65,-100,-100,-100,0,0,100,0.00,40.00,0,-999,0,0.01
2013-8-11,94,79,67,-100,-100,-100,0,0,100,0.00,40.00,0,-999,0,0.01
2013-8-12,94,80,63,-100,-100,-100,0,0,100,0.00,40.00,0,-999,0,0.01
2013-8-13,94,82,69,-100,-100,-100,0,0,100,0.00,40.00,0,-999,0,0.01
2013-8-14,95,80,63,-100,-100,-100,0,0,100,0.00,40.00,0,-999,0,0.01
2013-8-15,99,78,62,-100,-100,-100,0,0,100,0.00,40.00,0,-999,0,0.01
2013-8-16,96,82,68,-100,-100,-100,0,0,100,0.00,40.00,0,-999,0,0.01
2013-8-17,95,81,68,-100,-100,-100,0,0,100,0.00,40.00,0,-999,0,0.02
2013-8-18,96,81,68,-100,-100,-100,0,0,100,0.00,40.00,0,-999,0,0.01
2013-8-19,99,80,61,-100,-100,-100,0,0,100,0.00,40.00,0,-999,0,0.01
2013-8-20,95,81,66,-100,-100,-100,0,0,100,0.00,40.00,0,-999,0,0.01
2013-8-21,95,77,63,-100,-100,-100,0,0,100,0.00,40.00,0,-999,0,0.01
2013-8-22,90,77,63,-100,-100,-100,0,0,100,0.00,40.00,0,-999,0,0.01
2013-8-23,86,72,60,-100,-100,-100,0,0,100,0.00,40.00,0,-999,0,0.01
2013-8-24,89,74,61,-100,-100,-100,0,0,100,0.00,40.00,0,-999,0,0.00
2013-8-25,89,75,56,-100,-100,-100,0,0,100,0.00,40.00,0,-999,0,0.01
2013-8-26,86,72,58,-100,-100,-100,0,0,100,0.00,40.00,0,-999,0,0.01
2013-8-27,85,67,59,-100,-100,-100,0,0,100,0.00,40.00,0,-999,0,0.01
2013-8-28,91,82,65,-100,-100,-100,0,0,100,0.00,40.00,0,-999,0,0.11
2013-8-29,91,75,59,-100,-100,-100,0,0,100,0.00,40.00,0,-999,0,0.10
2013-8-30,88,74,59,-100,-100,-100,0,0,100,0.00,40.00,0,-999,0,0.01
2013-8-31,94,75,60,-100,-100,-100,0,0,100,0.00,40.00,0,-999,0,0.03
2013-9-1,92,75,55,-100,-100,-100,0,0,100,0.00,40.00,0,-999,0,0.02
2013-9-2,85,73,62,-100,-100,-100,0,0,100,0.00,40.00,0,-999,0,0.04
2013-9-3,86,72,65,-100,-100,-100,0,0,100,0.00,40.00,0,-999,0,0.04
2013-9-4,88,75,63,-100,-100,-100,0,0,100,0.00,40.00,0,-999,0,0.04
2013-9-5,83,68,64,-100,-100,-100,0,0,100,0.00,40.00,0,-999,0,0.66
2013-9-6,76,66,56,-100,-100,-100,0,0,100,0.00,40.00,0,-999,0,0.10
2013-9-7,82,65,52,-100,-100,-100,0,0,100,0.00,40.00,0,-999,0,0.09
2013-9-8,82,68,54,-100,-100,-100,0,0,100,0.00,40.00,0,-999,0,0.00
2013-9-9,84,69,53,-100,-100,-100,0,0,100,0.00,40.00,0,-999,0,0.00
2013-9-10,91,73,56,-100,-100,-100,0,0,100,0.00,40.00,0,-999,0,0.00
2013-9-11,96,79,60,-100,-100,-100,0,0,100,0.00,40.00,0,-999,0,0.00
2013-9-12,88,74,62,-100,-100,-100,0,0,100,0.00,40.00,0,-999,0,0.00
2013-9-13,81,70,64,-100,-100,-100,0,0,100,0.00,40.00,0,-999,0,0.11
2013-9-14,88,76,64,-100,-100,-100,0,0,100,0.00,40.00,0,-999,0,0.04
2013-9-15,87,74,62,-100,-100,-100,0,0,100,0.00,40.00,0,-999,0,0.10
2013-9-16,81,69,56,-100,-100,-100,0,0,100,0.00,40.00,0,-999,0,0.00
2013-9-17,71,63,55,-100,-100,-100,0,0,100,0.00,40.00,0,-999,0,0.20
2013-9-18,56,54,47,-100,-100,-100,0,0,100,0.00,40.00,0,-999,0,0.20
2013-9-19,72,54,38,-100,-100,-100,0,0,100,0.00,40.00,0,-999,0,0.00
2013-9-20,81,58,40,-100,-100,-100,0,0,100,0.00,40.00,0,-999,0,0.00
2013-9-21,73,63,54,-100,-100,-100,0,0,100,0.00,40.00,0,-999,0,0.00
2013-9-22,68,59,53,-100,-100,-100,0,0,100,0.00,40.00,0,-999,0,0.00
2013-9-23,68,58,43,-100,-100,-100,0,0,100,0.00,40.00,0,-999,0,0.00
2013-9-24,56,53,48,-100,-100,-100,0,0,100,0.00,40.00,0,-999,0,0.63
2013-9-25,54,49,44,-100,-100,-100,0,0,100,0.00,40.00,0,-999,0,0.40
2013-9-26,59,50,44,-100,-100,-100,0,0,100,0.00,40.00,0,-999,0,0.04
2013-9-27,59,51,38,-100,-100,-100,0,0,100,0.00,40.00,0,-999,0,0.11
2013-9-28,56,50,46,-100,-100,-100,0,0,100,0.00,40.00,0,-999,0,0.42
2013-9-29,62,52,46,-100,-100,-100,0,0,100,0.00,40.00,0,-999,0,0.84
2013-9-30,61,53,45,-100,-100,-100,0,0,100,0.00,40.00,0,-999,0,0.90
2013-10-1,60,54,47,-100,-100,-100,0,0,100,0.00,40.00,0,-999,0,0.01
2013-10-2,56,48,36,-100,-100,-100,0,0,100,0.00,40.00,0,-999,0,0.02
2013-10-3,56,49,44,-100,-100,-100,0,0,100,0.00,40.00,0,-999,0,0.01
2013-10-4,63,50,37,-100,-100,-100,0,0,100,0.00,40.00,0,-999,0,0.08
2013-10-5,63,46,32,-100,-100,-100,0,0,100,0.00,40.00,0,-999,0,0.04
2013-10-6,69,50,30,-100,-100,-100,0,0,100,0.00,40.00,0,-999,0,0.06
2013-10-7,65,52,33,-100,-100,-100,0,0,100,0.00,40.00,0,-999,0,0.04
2013-10-8,54,47,38,-100,-100,-100,0,0,100,0.00,40.00,0,-999,0,0.03
2013-10-9,60,49,38,-100,-100,-100,0,0,100,0.00,40.00,0,-999,0,0.06
2013-10-10,62,50,41,-100,-100,-100,0,0,100,0.00,40.00,0,-999,0,0.08
2013-10-11,61,49,37,-100,-100,-100,0,0,100,0.00,40.00,0,-999,0,0.01
2013-10-12,59,48,39,-100,-100,-100,0,0,100,0.00,40.00,0,-999,0,0.00
2013-10-13,60,50,42,-100,-100,-100,0,0,100,0.00,40.00,0,-999,0,0.01
2013-10-14,60,50,40,-100,-100,-100,0,0,100,0.00,40.00,0,-999,0,0.01
2013-10-15,61,48,36,-100,-100,-100,0,0,100,0.00,40.00,0,-999,0,0.00
2013-10-16,58,43,30,-100,-100,-100,0,0,100,0.00,40.00,0,-999,0,0.00
2013-10-17,63,49,35,-100,-100,-100,0,0,100,0.00,40.00,0,-999,0,0.01
2013-10-18,60,45,33,-100,-100,-100,0,0,100,0.00,40.00,0,-999,0,0.01
2013-10-19,63,48,28,-100,-100,-100,0,0,100,0.00,40.00,0,-999,0,0.01
2013-10-20,69,52,35,-100,-100,-100,0,0,100,0.00,40.00,0,-999,0,0.00
2013-10-21,68,55,44,-100,-100,-100,0,0,100,0.00,40.00,0,-999,0,0.00
2013-10-22,66,49,35,-100,-100,-100,0,0,100,0.00,40.00,0,-999,0,0.00
2013-10-23,67,47,32,-100,-100,-100,0,0,100,0.00,40.00,0,-999,0,0.00
2013-10-24,68,48,31,-100,-100,-100,0,0,100,0.00,40.00,0,-999,0,0.01
2013-10-25,69,49,30,-100,-100,-100,0,0,100,0.00,40.00,0,-999,0,0.01
2013-10-26,67,48,29,-100,-100,-100,0,0,100,0.00,40.00,0,-999,0,0.01
2013-10-27,60,44,27,-100,-100,-100,0,0,100,0.00,40.00,0,-999,0,0.02
2013-10-28,52,49,45,-100,-100,-100,0,0,100,0.00,40.00,0,-999,0,0.01
2013-10-29,56,45,32,-100,-100,-100,0,0,100,0.00,40.00,0,-999,0,0.01
2013-10-30,49,42,36,-100,-100,-100,0,0,100,0.00,40.00,0,-999,0,0.00
2013-10-31,45,38,27,-100,-100,-100,0,0,100,0.00,40.00,0,-999,0,0.04
2013-11-1,57,40,28,-100,-100,-100,0,0,100,0.00,40.00,0,-999,0,0.01
2013-11-2,46,42,36,-100,-100,-100,0,0,100,0.00,40.00,0,-999,0,0.13
2013-11-3,42,36,28,-100,-100,-100,0,0,100,0.00,40.00,0,-999,0,0.01
2013-11-4,42,31,23,-100,-100,-100,0,0,100,0.00,40.00,0,-999,0,0.01
2013-11-5,32,27,18,-100,-100,-100,0,0,100,0.00,40.00,0,-999,0,0.11
2013-11-6,41,36,32,-100,-100,-100,0,0,100,0.00,40.00,0,-999,0,0.02
2013-11-7,47,43,38,-100,-100,-100,0,0,100,0.00,40.00,0,-999,0,0.51
2013-11-8,48,40,35,-100,-100,-100,0,0,100,0.00,40.00,0,-999,0,0.01
2013-11-9,53,41,33,-100,-100,-100,0,0,100,0.00,40.00,0,-999,0,0.01
2013-11-10,56,41,31,-100,-100,-100,0,0,100,0.00,40.00,0,-999,0,0.00
2013-11-11,57,41,30,-100,-100,-100,0,0,100,0.00,40.00,0,-999,0,0.02
2013-11-12,56,42,30,-100,-100,-100,0,0,100,0.00,40.00,0,-999,0,0.00
2013-11-13,58,48,36,-100,-100,-100,0,0,100,0.00,40.00,0,-999,0,0.01
2013-11-14,48,38,30,-100,-100,-100,0,0,100,0.00,40.00,0,-999,0,0.01
2013-11-15,43,37,27,-100,-100,-100,0,0,100,0.00,40.00,0,-999,0,0.03
2013-11-16,45,38,33,-100,-100,-100,0,0,100,0.00,40.00,0,-999,0,0.32
2013-11-17,48,40,30,-100,-100,-100,0,0,100,0.00,40.00,0,-999,0,0.01
2013-11-18,44,35,28,-100,-100,-100,0,0,100,0.00,40.00,0,-999,0,0.00
2013-11-19,45,42,38,-100,-100,-100,0,0,100,0.00,40.00,0,-999,0,1.12
2013-11-20,46,40,30,-100,-100,-100,0,0,100,0.00,40.00,0,-999,0,0.67
2013-11-21,44,32,27,-100,-100,-100,0,0,100,0.00,40.00,0,-999,0,0.02
2013-11-22,41,31,24,-100,-100,-100,0,0,100,0.00,40.00,0,-999,0,0.01
2013-11-23,42,28,17,-100,-100,-100,0,0,100,0.00,40.00,0,-999,0,0.02
2013-11-24,42,28,16,-100,-100,-100,0,0,100,0.00,40.00,0,-999,0,0.01
2013-11-25,46,31,20,-100,-100,-100,0,0,100,0.00,40.00,0,-999,0,0.01
2013-11-26,44,31,21,-100,-100,-100,0,0,100,0.00,40.00,0,-999,0,0.01
2013-11-27,46,32,24,-100,-100,-100,0,0,100,0.00,40.00,0,-999,0,0.01
2013-11-28,47,31,22,-100,-100,-100,0,0,100,0.00,40.00,0,-999,0,0.01
2013-11-29,45,32,20,-100,-100,-100,0,0,100,0.00,40.00,0,-999,0,0.01
2013-11-30,39,35,28,-100,-100,-100,0,0,100,0.00,40.00,0,-999,0,0.02
2013-12-1,44,40,36,-100,-100,-100,0,0,100,0.00,40.00,0,-999,0,0.54
2013-12-2,49,42,28,-100,-100,-100,0,0,100,0.00,40.00,0,-999,0,0.15
2013-12-3,34,26,21,-100,-100,-100,0,0,100,0.00,40.00,0,-999,0,0.07
2013-12-4,29,20,13,-100,-100,-100,0,0,100,0.00,40.00,0,-999,0,0.01
2013-12-5,23,14,6,-100,-100,-100,0,0,100,0.00,40.00,0,-999,0,0.01
2013-12-6,24,17,8,-100,-100,-100,0,0,100,0.00,40.00,0,-999,0,0.01
2013-12-7,23,17,9,-100,-100,-100,0,0,100,0.00,40.00,0,-999,0,0.03
2013-12-8,14,7,-2,-100,-100,-100,0,0,100,0.00,40.00,0,-999,0,0.01
2013-12-9,19,9,-2,-100,-100,-100,0,0,100,0.00,40.00,0,-999,0,0.01
2013-12-10,28,18,9,-100,-100,-100,0,0,100,0.00,40.00,0,-999,0,0.00
2013-12-11,24,18,9,-100,-100,-100,0,0,100,0.00,40.00,0,-999,0,0.07
2013-12-12,29,16,7,-100,-100,-100,0,0,100,0.00,40.00,0,-999,0,0.01
2013-12-13,33,26,18,-100,-100,-100,0,0,100,0.00,40.00,0,-999,0,0.09
2013-12-14,36,30,25,-100,-100,-100,0,0,100,0.00,40.00,0,-999,0,0.01
2013-12-15,38,27,19,-100,-100,-100,0,0,100,0.00,40.00,0,-999,0,0.01
2013-12-16,37,23,13,-100,-100,-100,0,0,100,0.00,40.00,0,-999,0,0.01
2013-12-17,25,21,16,-100,-100,-100,0,0,100,0.00,40.00,0,-999,0,0.01
2013-12-18,26,22,18,-100,-100,-100,0,0,100,0.00,40.00,0,-999,0,0.01
2013-12-19,39,30,24,-100,-100,-100,0,0,100,0.00,40.00,0,-999,0,0.01
2013-12-20,25,20,12,-100,-100,-100,0,0,100,0.00,40.00,0,-999,0,0.11
2013-12-21,31,25,14,-100,-100,-100,0,0,100,0.00,40.00,0,-999,0,0.17
2013-12-22,36,31,27,-100,-100,-100,0,0,100,0.00,40.00,0,-999,0,0.03
2013-12-23,39,35,33,-100,-100,-100,0,0,100,0.00,40.00,0,-999,0,0.11
2013-12-24,39,31,22,-100,-100,-100,0,0,100,0.00,40.00,0,-999,0,0.10
2013-12-25,34,24,14,-100,-100,-100,0,0,100,0.00,40.00,0,-999,0,0.01
2013-12-26,35,23,15,-100,-100,-100,0,0,100,0.00,40.00,0,-999,0,0.01
2013-12-27,34,22,12,-100,-100,-100,0,0,100,0.00,40.00,0,-999,0,0.01
2013-12-28,45,27,18,-100,-100,-100,0,0,100,0.00,40.00,0,-999,0,0.01
2013-12-29,36,27,17,-100,-100,-100,0,0,100,0.00,40.00,0,-999,0,0.02
2013-12-30,33,26,19,-100,-100,-100,0,0,100,0.00,40.00,0,-999,0,0.01
2013-12-31,35,31,26,-100,-100,-100,0,0,100,0.00,40.00,0,-999,0,0.02
2014-1-1,40,28,18,-100,-100,-100,0,0,100,0.00,40.00,0,-999,0,0.01
2014-1-2,36,30,26,-100,-100,-100,0,0,100,0.00,40.00,0,-999,0,0.01